| time (UTC) | temp F | wind direction | speed MPH | gust MPH | rain 1hr in | rain 24hr in | rain mn in | humidity % | barometer mb |
| 20260508204251 | 71 | 12 | 0.0 | 4.0 | 0.00 | 0.00 | 0.00 | 42 | 1014.2 |
| 20260508204245 | 71 | 12 | 0.0 | 4.0 | 0.00 | 0.00 | 0.00 | 43 | 1014.4 |
| 20260508203745 | 72 | 12 | 0.0 | 0.0 | 0.00 | 0.00 | 0.00 | 42 | 1014.3 |
| 20260508203244 | 71 | 12 | 0.0 | 4.0 | 0.00 | 0.00 | 0.00 | 42 | 1014.3 |
| 20260508202249 | 72 | 12 | 0.0 | 0.0 | 0.00 | 0.00 | 0.00 | 47 | 1014.3 |
| 20260508202244 | 72 | 12 | 0.0 | 0.0 | 0.00 | 0.00 | 0.00 | 45 | 1014.2 |
| 20260508201245 | 72 | 12 | 0.0 | 0.0 | 0.00 | 0.00 | 0.00 | 43 | 1014.5 |
| 20260508200745 | 72 | 12 | 0.0 | 0.0 | 0.00 | 0.00 | 0.00 | 45 | 1014.5 |
| 20260508200244 | 72 | 12 | 0.0 | 0.0 | 0.00 | 0.00 | 0.00 | 44 | 1014.6 |
| 20260508195751 | 72 | 12 | 0.0 | 0.0 | 0.00 | 0.00 | 0.00 | 43 | 1014.6 |
| 20260508195744 | 72 | 11 | 0.0 | 0.0 | 0.00 | 0.00 | 0.00 | 45 | 1014.6 |
| 20260508195245 | 71 | 12 | 0.0 | 0.0 | 0.00 | 0.00 | 0.00 | 43 | 1014.6 |
| 20260508194244 | 71 | 12 | 0.0 | 0.0 | 0.00 | 0.00 | 0.00 | 44 | 1014.8 |
| 20260508193746 | 71 | 11 | 0.0 | 0.0 | 0.00 | 0.00 | 0.00 | 42 | 1014.9 |
| 20260508193245 | 71 | 12 | 0.0 | 0.0 | 0.00 | 0.00 | 0.00 | 43 | 1014.9 |
| 20260508192744 | 71 | 12 | 0.0 | 0.0 | 0.00 | 0.00 | 0.00 | 46 | 1015.0 |
| 20260508192245 | 71 | 12 | 0.0 | 0.0 | 0.00 | 0.00 | 0.00 | 42 | 1015.0 |
| 20260508191743 | 72 | 12 | 0.0 | 0.0 | 0.00 | 0.00 | 0.00 | 46 | 1015.1 |
| 20260508191245 | 72 | 12 | 0.0 | 0.0 | 0.00 | 0.00 | 0.00 | 42 | 1015.3 |
| 20260508190743 | 72 | 12 | 0.0 | 0.0 | 0.00 | 0.00 | 0.00 | 43 | 1015.2 |
| 20260508190245 | 72 | 12 | 0.0 | 0.0 | 0.00 | 0.00 | 0.00 | 41 | 1015.3 |
| 20260508185743 | 72 | 12 | 0.0 | 0.0 | 0.00 | 0.00 | 0.00 | 40 | 1015.5 |
| 20260508185245 | 71 | 12 | 0.0 | 0.0 | 0.00 | 0.00 | 0.00 | 39 | 1015.5 |
| 20260508184749 | 72 | 12 | 0.0 | 0.0 | 0.00 | 0.00 | 0.00 | 41 | 1015.6 |
| 20260508184744 | 71 | 12 | 0.0 | 0.0 | 0.00 | 0.00 | 0.00 | 40 | 1015.4 |
| 20260508183743 | 71 | 12 | 0.0 | 0.0 | 0.00 | 0.00 | 0.00 | 38 | 1015.7 |
| 20260508183245 | 71 | 12 | 0.0 | 0.0 | 0.00 | 0.00 | 0.00 | 41 | 1015.8 |
| 20260508182749 | 71 | 12 | 0.0 | 0.0 | 0.00 | 0.00 | 0.00 | 40 | 1015.8 |
| 20260508182743 | 71 | 12 | 0.0 | 0.0 | 0.00 | 0.00 | 0.00 | 43 | 1015.8 |
| 20260508182402 | 71 | 12 | 0.0 | 0.0 | 0.00 | 0.00 | 0.00 | 40 | 1016.0 |
| 20260508181743 | 72 | 12 | 0.0 | 0.0 | 0.00 | 0.00 | 0.00 | 44 | 1016.0 |
| 20260508180743 | 71 | 12 | 0.0 | 0.0 | 0.00 | 0.00 | 0.00 | 43 | 1016.0 |
| 20260508180247 | 71 | 12 | 0.0 | 0.0 | 0.00 | 0.00 | 0.00 | 44 | 1016.3 |
| 20260508180243 | 71 | 12 | 0.0 | 0.0 | 0.00 | 0.00 | 0.00 | 41 | 1016.2 |
| 20260508175739 | 71 | 12 | 0.0 | 0.0 | 0.00 | 0.00 | 0.00 | 42 | 1016.1 |
| 20260508175237 | 71 | 12 | 0.0 | 0.0 | 0.00 | 0.00 | 0.00 | 42 | 1016.1 |
| 20260508174737 | 72 | 12 | 0.0 | 0.0 | 0.00 | 0.00 | 0.00 | 44 | 1016.1 |
| 20260508173737 | 71 | 12 | 0.0 | 0.0 | 0.00 | 0.00 | 0.00 | 47 | 1016.3 |
| 20260508173239 | 71 | 12 | 0.0 | 0.0 | 0.00 | 0.00 | 0.00 | 43 | 1016.5 |
| 20260508172738 | 70 | 12 | 0.0 | 0.0 | 0.00 | 0.00 | 0.00 | 48 | 1016.7 |
| 20260508172238 | 70 | 12 | 0.0 | 0.0 | 0.00 | 0.00 | 0.00 | 48 | 1016.8 |
| 20260508171737 | 69 | 12 | 0.0 | 0.0 | 0.00 | 0.00 | 0.00 | 44 | 1016.7 |
| 20260508171236 | 69 | 12 | 0.0 | 0.0 | 0.00 | 0.00 | 0.00 | 44 | 1016.7 |
| 20260508170740 | 69 | 11 | 0.0 | 0.0 | 0.00 | 0.00 | 0.00 | 46 | 1016.9 |
| 20260508170735 | 69 | 12 | 0.0 | 0.0 | 0.00 | 0.00 | 0.00 | 45 | 1016.9 |
| 20260508170356 | 69 | 12 | 0.0 | 6.0 | 0.00 | 0.00 | 0.00 | 47 | 1017.0 |
| 20260508165232 | 69 | 12 | 0.0 | 6.0 | 0.00 | 0.00 | 0.00 | 45 | 1017.2 |
| 20260508164742 | 67 | 12 | 0.0 | 0.0 | 0.00 | 0.00 | 0.00 | 50 | 1017.6 |
| 20260508164733 | 71 | 12 | 0.0 | 4.0 | 0.00 | 0.00 | 0.00 | 44 | 1017.2 |
| 20260508164231 | 70 | 12 | 0.0 | 0.0 | 0.00 | 0.00 | 0.00 | 42 | 1017.3 |
| 20260508163732 | 70 | 12 | 0.0 | 0.0 | 0.00 | 0.00 | 0.00 | 44 | 1017.4 |
| 20260508163233 | 68 | 11 | 0.0 | 0.0 | 0.00 | 0.00 | 0.00 | 49 | 1017.4 |
| 20260508162732 | 69 | 12 | 0.0 | 0.0 | 0.00 | 0.00 | 0.00 | 51 | 1017.5 |
| 20260508161732 | 67 | 12 | 0.0 | 0.0 | 0.00 | 0.00 | 0.00 | 53 | 1017.7 |
| 20260508161230 | 67 | 12 | 0.0 | 1.0 | 0.00 | 0.00 | 0.00 | 49 | 1017.8 |
| 20260508160731 | 66 | 12 | 0.0 | 1.0 | 0.00 | 0.00 | 0.00 | 49 | 1017.8 |
| 20260508160235 | 66 | 12 | 0.0 | 0.0 | 0.00 | 0.00 | 0.00 | 54 | 1018.0 |
| 20260508160231 | 66 | 12 | 0.0 | 0.0 | 0.00 | 0.00 | 0.00 | 49 | 1018.0 |
| 20260508155229 | 66 | 12 | 0.0 | 0.0 | 0.00 | 0.00 | 0.00 | 52 | 1018.0 |
| 20260508154729 | 66 | 12 | 0.0 | 1.0 | 0.00 | 0.00 | 0.00 | 49 | 1018.1 |
| 20260508154230 | 65 | 12 | 0.0 | 1.0 | 0.00 | 0.00 | 0.00 | 48 | 1018.2 |
| 20260508153731 | 65 | 12 | 0.0 | 1.0 | 0.00 | 0.00 | 0.00 | 49 | 1018.1 |
| 20260508153231 | 65 | 12 | 0.0 | 6.0 | 0.00 | 0.00 | 0.00 | 52 | 1018.2 |
| 20260508152735 | 65 | 12 | 0.0 | 9.0 | 0.00 | 0.01 | 0.00 | 52 | 1018.0 |
| 20260508152729 | 65 | 12 | 0.0 | 9.0 | 0.00 | 0.00 | 0.00 | 52 | 1018.0 |
| 20260508152348 | 65 | 12 | 0.0 | 4.0 | 0.00 | 0.02 | 0.00 | 54 | 1017.9 |
| 20260508151229 | 65 | 12 | 0.0 | 4.0 | 0.00 | 0.02 | 0.00 | 56 | 1017.9 |
| 20260508150730 | 65 | 12 | 0.0 | 5.0 | 0.00 | 0.02 | 0.00 | 53 | 1017.9 |
| 20260508150229 | 65 | 12 | 0.0 | 11.0 | 0.00 | 0.03 | 0.00 | 51 | 1017.9 |
| 20260508145730 | 65 | 12 | 0.0 | 11.0 | 0.00 | 0.03 | 0.00 | 55 | 1018.0 |
| 20260508145230 | 65 | 12 | 0.0 | 4.0 | 0.00 | 0.06 | 0.00 | 54 | 1018.0 |
| 20260508144730 | 65 | 12 | 0.0 | 2.0 | 0.00 | 0.10 | 0.00 | 59 | 1018.1 |
| 20260508144230 | 65 | 12 | 0.0 | 4.0 | 0.00 | 0.13 | 0.00 | 55 | 1018.0 |
| 20260508143729 | 64 | 12 | 0.0 | 6.0 | 0.00 | 0.16 | 0.00 | 56 | 1018.0 |
| 20260508143228 | 64 | 12 | 1.0 | 7.0 | 0.00 | 0.18 | 0.00 | 59 | 1018.0 |
| 20260508142727 | 64 | 12 | 0.0 | 7.0 | 0.00 | 0.22 | 0.00 | 58 | 1018.1 |
| 20260508142227 | 64 | 12 | 0.0 | 6.0 | 0.00 | 0.28 | 0.00 | 59 | 1018.2 |
| 20260508141851 | 64 | 12 | 0.0 | 8.0 | 0.00 | 0.58 | 0.00 | 64 | 1018.3 |
| 20260508141732 | 64 | 12 | 1.0 | 8.0 | 0.00 | 0.48 | 0.00 | 63 | 1018.2 |
| 20260508141727 | 64 | 12 | 0.0 | 8.0 | 0.00 | 0.37 | 0.00 | 63 | 1018.2 |
| 20260508140227 | 63 | 12 | 0.0 | 3.0 | 0.00 | 0.67 | 0.00 | 62 | 1018.3 |
| 20260508135729 | 63 | 12 | 0.0 | 3.0 | 0.00 | 0.75 | 0.00 | 64 | 1018.3 |
| 20260508135228 | 63 | 12 | 0.0 | 11.0 | 0.00 | 0.79 | 0.00 | 63 | 1018.2 |
| 20260508134725 | 63 | 12 | 1.0 | 11.0 | 0.00 | 0.80 | 0.00 | 66 | 1018.1 |
| 20260508134226 | 63 | 12 | 0.0 | 9.0 | 0.00 | 0.80 | 0.00 | 64 | 1018.0 |
| 20260508133725 | 63 | 12 | 0.0 | 0.0 | 0.00 | 0.81 | 0.00 | 67 | 1018.0 |
| 20260508133225 | 63 | 12 | 0.0 | 0.0 | 0.00 | 0.83 | 0.00 | 64 | 1017.9 |
| 20260508132725 | 63 | 12 | 0.0 | 0.0 | 0.00 | 0.84 | 0.00 | 70 | 1017.9 |
| 20260508132232 | 64 | 12 | 0.0 | 5.0 | 0.00 | 0.98 | 0.00 | 70 | 1017.6 |
| 20260508132226 | 64 | 12 | 0.0 | 1.0 | 0.00 | 0.87 | 0.00 | 68 | 1017.8 |
| 20260508131726 | 64 | 12 | 0.0 | 1.0 | 0.00 | 0.91 | 0.00 | 69 | 1017.7 |
| 20260508131227 | 64 | 12 | 0.0 | 5.0 | 0.00 | 0.94 | 0.00 | 68 | 1017.6 |
| 20260508130226 | 64 | 12 | 0.0 | 0.0 | 0.00 | 0.99 | 0.00 | 71 | 1017.6 |
| 20260508125723 | 64 | 12 | 0.0 | 0.0 | 0.00 | 1.00 | 0.00 | 72 | 1017.6 |
| 20260508125223 | 63 | 12 | 0.0 | 0.0 | 0.00 | 1.00 | 0.00 | 75 | 1017.6 |
| 20260508124723 | 63 | 12 | 0.0 | 0.0 | 0.00 | 1.00 | 0.00 | 76 | 1017.6 |
| 20260508124224 | 62 | 12 | 0.0 | 0.0 | 0.00 | 1.00 | 0.00 | 75 | 1017.7 |
| 20260508123724 | 62 | 12 | 0.0 | 0.0 | 0.00 | 1.00 | 0.00 | 77 | 1017.6 |
| 20260508123225 | 61 | 12 | 0.0 | 0.0 | 0.00 | 1.00 | 0.00 | 79 | 1017.5 |
| 20260508122724 | 61 | 12 | 0.0 | 0.0 | 0.00 | 1.00 | 0.00 | 80 | 1017.6 |
| 20260508122223 | 62 | 12 | 0.0 | 0.0 | 0.00 | 1.00 | 0.00 | 79 | 1017.5 |
| 20260508121723 | 61 | 12 | 0.0 | 1.0 | 0.00 | 1.00 | 0.00 | 83 | 1017.4 |
| 20260508121222 | 60 | 11 | 0.0 | 1.0 | 0.00 | 1.00 | 0.00 | 83 | 1017.3 |
| 20260508120721 | 60 | 12 | 0.0 | 0.0 | 0.00 | 1.00 | 0.00 | 84 | 1017.3 |
| 20260508120229 | 60 | 12 | 0.0 | 0.0 | 0.00 | 1.00 | 0.00 | 88 | 1017.0 |
| 20260508120222 | 60 | 12 | 0.0 | 0.0 | 0.00 | 1.00 | 0.00 | 85 | 1017.2 |
| 20260508115723 | 60 | 12 | 0.0 | 0.0 | 0.00 | 1.00 | 0.00 | 85 | 1017.1 |
| 20260508114723 | 59 | 12 | 0.0 | 0.0 | 0.00 | 1.00 | 0.00 | 90 | 1016.8 |
| 20260508114221 | 58 | 11 | 0.0 | 0.0 | 0.00 | 1.00 | 0.00 | 92 | 1016.7 |
| 20260508113722 | 57 | 11 | 0.0 | 0.0 | 0.00 | 1.00 | 0.00 | 92 | 1016.6 |
| 20260508113222 | 57 | 12 | 0.0 | 0.0 | 0.00 | 1.00 | 0.00 | 92 | 1016.5 |
| 20260508112725 | 56 | 11 | 0.0 | 0.0 | 0.00 | 1.01 | 0.00 | 94 | 1016.4 |
| 20260508112719 | 56 | 12 | 0.0 | 0.0 | 0.00 | 1.00 | 0.00 | 93 | 1016.3 |
| 20260508111720 | 56 | 11 | 0.0 | 0.0 | 0.00 | 1.01 | 0.00 | 95 | 1016.3 |
| 20260508111221 | 55 | 12 | 0.0 | 0.0 | 0.00 | 1.01 | 0.00 | 96 | 1016.3 |
| 20260508110720 | 54 | 12 | 0.0 | 0.0 | 0.00 | 1.01 | 0.00 | 96 | 1016.2 |
| 20260508110219 | 53 | 12 | 0.0 | 0.0 | 0.00 | 1.01 | 0.00 | 96 | 1016.1 |
| 20260508105725 | 53 | 12 | 0.0 | 0.0 | 0.00 | 1.01 | 0.00 | 96 | 1015.9 |
| 20260508105721 | 53 | 12 | 0.0 | 0.0 | 0.00 | 1.01 | 0.00 | 96 | 1016.0 |
| 20260508104719 | 53 | 12 | 0.0 | 0.0 | 0.00 | 1.01 | 0.00 | 96 | 1015.9 |
| 20260508104219 | 53 | 12 | 0.0 | 0.0 | 0.00 | 1.01 | 0.00 | 96 | 1015.8 |
| 20260508103718 | 53 | 12 | 0.0 | 0.0 | 0.00 | 1.02 | 0.00 | 96 | 1015.4 |
| 20260508103218 | 52 | 12 | 0.0 | 0.0 | 0.00 | 1.02 | 0.00 | 96 | 1015.4 |
| 20260508102719 | 53 | 12 | 0.0 | 0.0 | 0.00 | 1.02 | 0.00 | 96 | 1015.1 |
| 20260508102218 | 53 | 12 | 0.0 | 0.0 | 0.00 | 1.03 | 0.00 | 96 | 1015.2 |
| 20260508101717 | 53 | 12 | 0.0 | 0.0 | 0.00 | 1.03 | 0.00 | 96 | 1015.0 |
| 20260508101217 | 53 | 12 | 0.0 | 0.0 | 0.00 | 1.03 | 0.00 | 96 | 1015.0 |
| 20260508100718 | 53 | 12 | 0.0 | 0.0 | 0.00 | 1.03 | 0.00 | 96 | 1015.0 |
| 20260508100219 | 53 | 12 | 0.0 | 0.0 | 0.00 | 1.03 | 0.00 | 96 | 1014.9 |
| 20260508095722 | 54 | 12 | 0.0 | 0.0 | 0.00 | 1.03 | 0.00 | 96 | 1014.8 |
| 20260508095717 | 54 | 12 | 0.0 | 0.0 | 0.00 | 1.03 | 0.00 | 96 | 1014.9 |
| 20260508094716 | 54 | 12 | 0.0 | 0.0 | 0.00 | 1.03 | 0.00 | 96 | 1014.9 |
| 20260508094214 | 54 | 12 | 0.0 | 0.0 | 0.00 | 1.03 | 0.00 | 96 | 1014.8 |
| 20260508093720 | 54 | 12 | 0.0 | 0.0 | 0.00 | 1.04 | 0.00 | 96 | 1014.5 |
| 20260508093716 | 54 | 11 | 0.0 | 0.0 | 0.00 | 1.04 | 0.00 | 96 | 1014.6 |
| 20260508092720 | 54 | 12 | 0.0 | 0.0 | 0.00 | 1.04 | 0.00 | 96 | 1014.7 |
| 20260508092715 | 54 | 12 | 0.0 | 0.0 | 0.00 | 1.04 | 0.00 | 96 | 1014.6 |
| 20260508091722 | 55 | 12 | 0.0 | 0.0 | 0.00 | 1.05 | 0.00 | 96 | 1014.7 |
| 20260508091715 | 54 | 12 | 0.0 | 0.0 | 0.00 | 1.04 | 0.00 | 96 | 1014.6 |
| 20260508091214 | 55 | 12 | 0.0 | 0.0 | 0.00 | 1.05 | 0.00 | 96 | 1014.6 |
| 20260508090716 | 55 | 12 | 0.0 | 0.0 | 0.00 | 1.05 | 0.00 | 96 | 1014.6 |
| 20260508085720 | 55 | 12 | 0.0 | 0.0 | 0.00 | 1.06 | 0.00 | 95 | 1014.7 |
| 20260508085716 | 55 | 12 | 0.0 | 0.0 | 0.00 | 1.05 | 0.00 | 96 | 1014.7 |
| 20260508085334 | 55 | 12 | 0.0 | 0.0 | 0.00 | 1.06 | 0.00 | 95 | 1014.6 |
| 20260508084715 | 55 | 12 | 0.0 | 0.0 | 0.00 | 1.06 | 0.00 | 95 | 1014.6 |
| 20260508083720 | 55 | 12 | 0.0 | 0.0 | 0.00 | 1.06 | 0.00 | 96 | 1014.5 |
| 20260508083716 | 55 | 12 | 0.0 | 0.0 | 0.00 | 1.06 | 0.00 | 96 | 1014.6 |
| 20260508083213 | 55 | 12 | 0.0 | 0.0 | 0.00 | 1.06 | 0.00 | 96 | 1014.5 |
| 20260508082214 | 55 | 12 | 0.0 | 0.0 | 0.00 | 1.06 | 0.00 | 95 | 1014.5 |
| 20260508081710 | 55 | 12 | 0.0 | 0.0 | 0.00 | 1.06 | 0.00 | 95 | 1014.5 |
| 20260508081218 | 55 | 12 | 0.0 | 0.0 | 0.00 | 1.07 | 0.00 | 95 | 1014.5 |
| 20260508081212 | 55 | 12 | 0.0 | 0.0 | 0.00 | 1.07 | 0.00 | 95 | 1014.5 |
| 20260508080711 | 55 | 12 | 0.0 | 0.0 | 0.00 | 1.07 | 0.00 | 95 | 1014.5 |
| 20260508075710 | 55 | 12 | 0.0 | 0.0 | 0.00 | 1.07 | 0.00 | 95 | 1014.4 |
| 20260508075211 | 56 | 12 | 0.0 | 0.0 | 0.00 | 1.07 | 0.00 | 95 | 1014.2 |
| 20260508074711 | 56 | 12 | 0.0 | 0.0 | 0.00 | 1.07 | 0.00 | 95 | 1014.3 |
| 20260508074219 | 56 | 12 | 0.0 | 0.0 | 0.00 | 1.07 | 0.00 | 95 | 1014.1 |
| 20260508074212 | 56 | 12 | 0.0 | 0.0 | 0.00 | 1.07 | 0.00 | 94 | 1014.2 |
| 20260508073712 | 56 | 12 | 0.0 | 0.0 | 0.00 | 1.07 | 0.00 | 94 | 1014.2 |
| 20260508072711 | 56 | 11 | 0.0 | 0.0 | 0.00 | 1.07 | 0.00 | 95 | 1014.0 |
| 20260508072211 | 56 | 12 | 0.0 | 0.0 | 0.00 | 1.07 | 0.00 | 94 | 1014.0 |
| 20260508071713 | 56 | 12 | 0.0 | 0.0 | 0.00 | 1.07 | 0.00 | 94 | 1014.0 |
| 20260508071212 | 56 | 12 | 0.0 | 0.0 | 0.00 | 1.07 | 0.00 | 94 | 1014.0 |
| 20260508070712 | 56 | 12 | 0.0 | 0.0 | 0.00 | 1.07 | 0.00 | 93 | 1014.0 |
| 20260508070217 | 57 | 12 | 0.0 | 0.0 | 0.00 | 1.07 | 0.00 | 92 | 1013.9 |
| 20260508070211 | 57 | 12 | 0.0 | 0.0 | 0.00 | 1.07 | 0.00 | 93 | 1014.0 |
| 20260508065711 | 57 | 12 | 0.0 | 0.0 | 0.00 | 1.07 | 0.00 | 93 | 1014.0 |
| 20260508064711 | 58 | 12 | 0.0 | 0.0 | 0.00 | 1.07 | 0.00 | 94 | 1013.8 |
| 20260508064208 | 57 | 12 | 0.0 | 0.0 | 0.00 | 1.07 | 0.00 | 93 | 1013.8 |
| 20260508063828 | 57 | 12 | 0.0 | 0.0 | 0.00 | 1.07 | 0.00 | 93 | 1014.0 |
| 20260508063714 | 57 | 12 | 0.0 | 0.0 | 0.00 | 1.07 | 0.00 | 93 | 1013.9 |
| 20260508063709 | 57 | 12 | 0.0 | 0.0 | 0.00 | 1.07 | 0.00 | 93 | 1014.0 |
| 20260508062208 | 58 | 12 | 0.0 | 0.0 | 0.00 | 1.07 | 0.00 | 92 | 1014.0 |
| 20260508061707 | 58 | 12 | 0.0 | 0.0 | 0.00 | 1.07 | 0.00 | 92 | 1014.1 |
| 20260508061211 | 59 | 12 | 0.0 | 0.0 | 0.00 | 1.07 | 0.00 | 91 | 1014.2 |
| 20260508061205 | 58 | 12 | 0.0 | 0.0 | 0.00 | 1.07 | 0.00 | 92 | 1014.2 |
| 20260508060706 | 59 | 12 | 0.0 | 0.0 | 0.00 | 1.07 | 0.00 | 91 | 1014.3 |
| 20260508055705 | 59 | 12 | 0.0 | 0.0 | 0.00 | 1.07 | 0.00 | 91 | 1014.3 |
| 20260508055206 | 59 | 12 | 0.0 | 0.0 | 0.00 | 1.07 | 0.00 | 91 | 1014.2 |
| 20260508054706 | 59 | 12 | 0.0 | 0.0 | 0.00 | 1.07 | 0.00 | 91 | 1014.3 |
| 20260508054205 | 59 | 11 | 0.0 | 0.0 | 0.00 | 1.07 | 0.00 | 90 | 1014.1 |
| 20260508053711 | 60 | 12 | 0.0 | 0.0 | 0.00 | 1.07 | 0.00 | 90 | 1014.1 |
| 20260508053704 | 59 | 12 | 0.0 | 0.0 | 0.00 | 1.07 | 0.00 | 90 | 1014.1 |
| 20260508053205 | 60 | 12 | 0.0 | 0.0 | 0.00 | 1.07 | 0.00 | 90 | 1014.2 |
| 20260508052205 | 60 | 12 | 0.0 | 0.0 | 0.00 | 1.07 | 0.00 | 90 | 1014.1 |
| 20260508051706 | 60 | 12 | 0.0 | 0.0 | 0.00 | 1.07 | 0.00 | 89 | 1014.1 |
| 20260508051207 | 60 | 12 | 0.0 | 0.0 | 0.00 | 1.07 | 0.00 | 89 | 1014.2 |
| 20260508050705 | 60 | 12 | 0.0 | 0.0 | 0.00 | 1.07 | 0.00 | 89 | 1014.2 |
| 20260508050207 | 60 | 12 | 0.0 | 0.0 | 0.00 | 1.07 | 0.00 | 88 | 1014.2 |
| 20260508045706 | 60 | 12 | 0.0 | 0.0 | 0.00 | 1.07 | 0.00 | 89 | 1014.0 |
| 20260508044705 | 60 | 12 | 0.0 | 0.0 | 0.00 | 1.07 | 0.00 | 87 | 1014.0 |
| 20260508044204 | 60 | 12 | 0.0 | 0.0 | 0.00 | 1.07 | 0.00 | 88 | 1014.0 |
| 20260508043705 | 60 | 12 | 0.0 | 0.0 | 0.00 | 1.07 | 0.00 | 87 | 1014.0 |
| 20260508043206 | 60 | 12 | 0.0 | 0.0 | 0.00 | 1.07 | 0.00 | 87 | 1013.9 |
| 20260508042712 | 60 | 12 | 0.0 | 4.0 | 0.00 | 1.09 | 0.00 | 86 | 1013.6 |
| 20260508042705 | 60 | 12 | 0.0 | 1.0 | 0.00 | 1.08 | 0.00 | 87 | 1013.8 |
| 20260508042332 | 60 | 12 | 0.0 | 0.0 | 0.00 | 1.10 | 0.00 | 87 | 1013.7 |
| 20260508042207 | 60 | 11 | 0.0 | 4.0 | 0.00 | 1.08 | 0.00 | 87 | 1013.7 |
| 20260508040705 | 61 | 12 | 0.0 | 0.0 | 0.00 | 1.10 | 0.00 | 86 | 1013.6 |
| 20260508040204 | 61 | 12 | 0.0 | 0.0 | 0.00 | 1.10 | 0.00 | 86 | 1013.5 |
| 20260508035702 | 61 | 12 | 0.0 | 3.0 | 0.00 | 1.11 | 1.10 | 85 | 1013.5 |
| 20260508035208 | 61 | 12 | 0.0 | 3.0 | 0.00 | 1.11 | 1.10 | 84 | 1013.5 |
| 20260508035203 | 61 | 12 | 0.0 | 3.0 | 0.00 | 1.11 | 1.10 | 86 | 1013.5 |
| 20260508034204 | 61 | 12 | 0.0 | 3.0 | 0.00 | 1.12 | 1.10 | 84 | 1013.6 |
| 20260508033702 | 62 | 12 | 0.0 | 1.0 | 0.00 | 1.14 | 1.10 | 82 | 1013.4 |
| 20260508033203 | 62 | 12 | 0.0 | 1.0 | 0.00 | 1.16 | 1.10 | 82 | 1013.6 |
| 20260508032703 | 62 | 12 | 1.0 | 9.0 | 0.00 | 1.18 | 1.10 | 82 | 1013.6 |
| 20260508032203 | 62 | 12 | 1.0 | 9.0 | 0.00 | 1.18 | 1.10 | 83 | 1013.6 |
| 20260508031700 | 62 | 12 | 0.0 | 7.0 | 0.00 | 1.18 | 1.10 | 82 | 1013.5 |
| 20260508031201 | 62 | 11 | 0.0 | 2.0 | 0.00 | 1.18 | 1.10 | 81 | 1013.3 |
| 20260508030705 | 63 | 12 | 0.0 | 9.0 | 0.00 | 1.21 | 1.10 | 82 | 1013.3 |
| 20260508030700 | 63 | 12 | 0.0 | 9.0 | 0.00 | 1.19 | 1.10 | 83 | 1013.3 |
| 20260508030318 | 63 | 12 | 0.0 | 3.0 | 0.00 | 1.25 | 1.10 | 84 | 1013.2 |
| 20260508025701 | 63 | 12 | 0.0 | 3.0 | 0.00 | 1.23 | 1.10 | 82 | 1013.3 |
| 20260508025319 | 63 | 12 | 0.0 | 2.0 | 0.00 | 1.29 | 1.10 | 84 | 1012.9 |
| 20260508024702 | 63 | 11 | 0.0 | 2.0 | 0.00 | 1.27 | 1.10 | 82 | 1013.1 |
| 20260508024127 | 65 | 12 | 0.0 | 5.0 | 0.00 | 1.29 | 1.10 | 83 | 1012.0 |
| 20260508024006 | 65 | 12 | 0.0 | 5.0 | 0.00 | 1.29 | 1.10 | 84 | 1012.0 |
| 20260508023827 | 64 | 12 | 0.0 | 9.0 | 0.00 | 1.29 | 1.10 | 85 | 1012.3 |
| 20260508023753 | 63 | 0.0 | 0.0 | 0.00 | 1.29 | 1.10 | 83 | ||
| 20260508023738 | 63 | 12 | 0.0 | 4.0 | 0.00 | 1.29 | 1.10 | 84 | 1012.8 |
| 20260508023459 | 64 | 12 | 0.0 | 5.0 | 0.00 | 1.29 | 1.10 | 84 | 1012.1 |
| 20260508023452 | 64 | 12 | 0.0 | 5.0 | 0.00 | 1.29 | 1.10 | 82 | 1012.1 |
| 20260508023445 | 64 | 12 | 0.0 | 9.0 | 0.00 | 1.29 | 1.10 | 83 | 1012.1 |
| 20260508023319 | 64 | 12 | 0.0 | 6.0 | 0.00 | 1.29 | 1.10 | 83 | 1012.4 |
| 20260508023150 | 63 | 12 | 0.0 | 0.0 | 0.00 | 1.29 | 1.10 | 84 | 1012.5 |
| 20260508014636 | 65 | 12 | 0.0 | 8.0 | 0.00 | 1.29 | 1.10 | 82 | 1011.7 |
| 20260508014124 | 66 | 11 | 0.0 | 6.0 | 0.00 | 1.29 | 1.10 | 80 | 1011.2 |
| 20260508013617 | 67 | 12 | 1.0 | 9.0 | 0.00 | 1.29 | 1.10 | 79 | 1011.1 |
| 20260508013116 | 67 | 11 | 0.0 | 9.0 | 0.00 | 1.29 | 1.10 | 78 | 1011.0 |
| 20260508012621 | 70 | 12 | 0.0 | 1.0 | 0.00 | 1.29 | 1.10 | 80 | 1010.2 |
| 20260508012617 | 69 | 11 | 0.0 | 2.0 | 0.00 | 1.29 | 1.10 | 79 | 1010.7 |
| 20260508012110 | 69 | 12 | 0.0 | 1.0 | 0.00 | 1.29 | 1.10 | 78 | 1010.6 |
| 20260508011056 | 71 | 11 | 0.0 | 0.0 | 0.00 | 1.29 | 1.10 | 85 | 1010.1 |
| 20260508010556 | 71 | 11 | 0.0 | 0.0 | 0.00 | 1.29 | 1.10 | 83 | 1009.7 |
| 20260508010055 | 71 | 11 | 0.0 | 0.0 | 0.00 | 1.29 | 1.10 | 83 | 1009.7 |
| 20260508005552 | 71 | 11 | 0.0 | 0.0 | 0.00 | 1.29 | 1.10 | 82 | 1009.6 |
| 20260508005017 | 71 | 11 | 0.0 | 0.0 | 0.00 | 1.29 | 1.10 | 81 | 1009.4 |
| 20260508004452 | 72 | 11 | 0.0 | 0.0 | 0.00 | 1.29 | 1.10 | 80 | 1009.2 |
| 20260508003951 | 72 | 11 | 0.0 | 0.0 | 0.00 | 1.29 | 1.10 | 80 | 1008.8 |
| 20260508003427 | 72 | 11 | 0.0 | 0.0 | 0.00 | 1.29 | 1.10 | 80 | 1008.7 |
| 20260508002913 | 72 | 11 | 0.0 | 0.0 | 0.00 | 1.29 | 1.10 | 80 | 1008.6 |
| 20260508002406 | 72 | 11 | 0.0 | 0.0 | 0.00 | 1.29 | 1.10 | 80 | 1008.6 |
| 20260508001855 | 73 | 11 | 0.0 | 0.0 | 0.00 | 1.29 | 1.10 | 79 | 1008.6 |
| 20260508001346 | 73 | 11 | 0.0 | 0.0 | 0.00 | 1.29 | 1.10 | 79 | 1008.4 |
| 20260508000829 | 74 | 11 | 0.0 | 0.0 | 0.00 | 1.29 | 1.10 | 78 | 1008.1 |
| 20260508000825 | 73 | 11 | 0.0 | 0.0 | 0.00 | 1.29 | 1.10 | 78 | 1008.3 |
| 20260507235755 | 74 | 11 | 0.0 | 0.0 | 0.00 | 1.29 | 1.10 | 78 | 1008.1 |
| 20260507235251 | 74 | 11 | 0.0 | 0.0 | 0.00 | 1.29 | 1.10 | 77 | 1008.0 |
| 20260507235237 | 74 | 11 | 0.0 | 0.0 | 0.00 | 1.29 | 1.10 | 77 | 1007.9 |
| 20260507234227 | 75 | 11 | 0.0 | 0.0 | 0.00 | 1.29 | 1.10 | 76 | 1007.8 |
| 20260507233727 | 75 | 11 | 0.0 | 0.0 | 0.00 | 1.29 | 1.10 | 75 | 1007.9 |
| 20260507233215 | 75 | 11 | 0.0 | 0.0 | 0.00 | 1.29 | 1.10 | 75 | 1008.0 |
| 20260507232715 | 76 | 11 | 0.0 | 0.0 | 0.00 | 1.29 | 1.10 | 74 | 1007.8 |
| 20260507232156 | 76 | 11 | 0.0 | 0.0 | 0.00 | 1.29 | 1.10 | 73 | 1007.5 |
| 20260507231647 | 76 | 11 | 0.0 | 0.0 | 0.00 | 1.29 | 1.10 | 72 | 1007.7 |
| 20260507231124 | 76 | 11 | 0.0 | 1.0 | 0.00 | 1.29 | 1.10 | 71 | 1007.8 |
| 20260507230613 | 77 | 11 | 0.0 | 4.0 | 0.00 | 1.29 | 1.10 | 70 | 1007.8 |
| 20260507230105 | 77 | 11 | 0.0 | 4.0 | 0.00 | 1.29 | 1.10 | 70 | 1007.7 |
| 20260507225555 | 77 | 11 | 0.0 | 0.0 | 0.00 | 1.29 | 1.10 | 69 | 1007.6 |
| 20260507225051 | 77 | 11 | 0.0 | 0.0 | 0.00 | 1.29 | 1.10 | 68 | 1007.5 |
| 20260507224541 | 78 | 11 | 0.0 | 0.0 | 0.00 | 1.29 | 1.10 | 68 | 1007.4 |
| 20260507224041 | 78 | 12 | 0.0 | 0.0 | 0.00 | 1.29 | 1.10 | 68 | 1007.3 |
| 20260507223543 | 78 | 11 | 0.0 | 0.0 | 0.00 | 1.29 | 1.10 | 67 | 1007.3 |
| 20260507223539 | 78 | 11 | 0.0 | 0.0 | 0.00 | 1.29 | 1.10 | 68 | 1007.4 |
| 20260507222535 | 78 | 11 | 0.0 | 0.0 | 0.00 | 1.29 | 1.10 | 66 | 1007.4 |
| 20260507222030 | 78 | 11 | 0.0 | 6.0 | 0.00 | 1.29 | 1.10 | 66 | 1007.5 |
| 20260507222025 | 78 | 11 | 0.0 | 6.0 | 0.00 | 1.29 | 1.10 | 66 | 1007.4 |
| 20260507221453 | 79 | 11 | 0.0 | 4.0 | 0.00 | 1.29 | 1.10 | 65 | 1007.2 |
| 20260507221058 | 78 | 11 | 0.0 | 4.0 | 0.00 | 1.29 | 1.10 | 65 | 1007.4 |
| 20260507215929 | 79 | 11 | 0.0 | 0.0 | 0.00 | 1.29 | 1.10 | 67 | 1007.3 |
| 20260507215427 | 79 | 11 | 0.0 | 3.0 | 0.00 | 1.29 | 1.10 | 66 | 1007.3 |
| 20260507215408 | 79 | 11 | 0.0 | 3.0 | 0.00 | 1.29 | 1.10 | 67 | 1007.5 |
| 20260507214407 | 79 | 12 | 0.0 | 0.0 | 0.00 | 1.29 | 1.10 | 66 | 1007.4 |
| 20260507213853 | 80 | 11 | 0.0 | 0.0 | 0.00 | 1.29 | 1.10 | 64 | 1007.4 |
| 20260507213355 | 80 | 11 | 0.0 | 1.0 | 0.00 | 1.29 | 1.10 | 67 | 1007.2 |
| 20260507212847 | 79 | 11 | 0.0 | 1.0 | 0.00 | 1.29 | 1.10 | 67 | 1007.3 |
| 20260507212347 | 79 | 11 | 0.0 | 0.0 | 0.00 | 1.29 | 1.10 | 69 | 1007.2 |
| 20260507211847 | 80 | 11 | 0.0 | 0.0 | 0.00 | 1.29 | 1.10 | 66 | 1007.2 |
| 20260507211343 | 79 | 11 | 0.0 | 0.0 | 0.00 | 1.29 | 1.10 | 66 | 1007.3 |
| 20260507210820 | 80 | 11 | 0.0 | 0.0 | 0.00 | 1.29 | 1.10 | 69 | 1007.4 |
| 20260507210318 | 79 | 12 | 0.0 | 0.0 | 0.00 | 1.29 | 1.10 | 69 | 1007.5 |
| 20260507205754 | 78 | 12 | 0.0 | 0.0 | 0.00 | 1.29 | 1.10 | 72 | 1007.3 |
| 20260507205255 | 78 | 11 | 0.0 | 2.0 | 0.00 | 1.29 | 1.10 | 71 | 1007.5 |
| 20260507204750 | 78 | 11 | 0.0 | 2.0 | 0.00 | 1.29 | 1.10 | 71 | 1007.5 |